Weather History for Ann Arbor, MI

Change the Weather History Date:

Monday, February 25, 2013

  Actual Average Record
Temperature  
Mean Temperature 28 °F -  
Max Temperature 41 °F 33 °F 59 °F (2002)
Min Temperature 15 °F 17 °F -8 °F (2003)
Degree Days  
Heating Degree Days 37    
Moisture  
Dew Point 20 °F    
Average Humidity 73    
Maximum Humidity 100    
Minimum Humidity 50    
Precipitation  
Precipitation 0.00 in - - ()
Sea Level Pressure  
Sea Level Pressure 30.18 in    
Wind  
Wind Speed 2 mph (ESE)    
Max Wind Speed 8 mph    
Max Gust Speed -    
Visibility 8 miles    
Events      
Averages and records for this station are not official NWS values.
T = Trace of Precipitation, MM = Missing Value Source: NWS Daily Summary

Daily Weather History Graph

Daily Weather History Graph

Search for Another Location

Airport:

Trip Planner

Search our weather history database for the weather conditions in past years. The results will help you decide how hot, cold, wet, or windy it might be!

Date:

Astronomy

Feb. 25, 2013 Rise Set
Actual Time 7:16 AM EST 6:20 PM EST
Civil Twilight 6:47 AM EST 6:48 PM EST
Nautical Twilight 6:15 AM EST 7:21 PM EST
Astronomical Twilight 5:43 AM EST 7:53 PM EST
Moon 6:33 PM EST (2/25) 6:45 AM EST (2/25)
Length of Visible Light 12h 00m
Length of Day
11h 04m
Full, 100% of the Moon is Illuminated
Feb 25
Full
Feb 25
Full
Mar 4
Last Quarter
Mar 11
New
Mar 19
First Quarter

Hourly Weather History & Observations

Time (EST) Temp. Windchill Dew Point Humidity Pressure Visibility Wind Dir Wind Speed Gust Speed Precip Events Conditions
12:53 AM 21.9 °F - 21.0 °F 96% 30.18 in 6.0 mi Calm Calm - N/A   Mostly Cloudy
1:53 AM 18.0 °F - 18.0 °F 100% 30.19 in 5.0 mi Calm Calm - N/A   Partly Cloudy
2:53 AM 18.0 °F - 16.0 °F 92% 30.19 in 6.0 mi Calm Calm - N/A   Clear
3:53 AM 17.1 °F - 15.1 °F 92% 30.18 in 7.0 mi Calm Calm - N/A   Clear
4:53 AM 16.0 °F - 12.9 °F 88% 30.19 in 7.0 mi Calm Calm - N/A   Clear
5:53 AM 16.0 °F - 14.0 °F 92% 30.19 in 8.0 mi Calm Calm - N/A   Clear
6:53 AM 15.1 °F - 12.0 °F 88% 30.22 in 8.0 mi Calm Calm - N/A   Clear
7:53 AM 18.0 °F - 15.1 °F 88% 30.24 in 6.0 mi Calm Calm - N/A   Clear
8:53 AM 26.1 °F - 24.1 °F 92% 30.25 in 4.0 mi Calm Calm - N/A   Clear
9:53 AM 35.1 °F 31.0 °F 24.1 °F 64% 30.22 in 10.0 mi East 4.6 mph - N/A   Clear
10:53 AM 37.0 °F 32.4 °F 21.9 °F 54% 30.22 in 10.0 mi ENE 5.8 mph - N/A   Clear
11:53 AM 37.9 °F 33.5 °F 23.0 °F 55% 30.23 in 10.0 mi Variable 5.8 mph - N/A   Scattered Clouds
12:53 PM 39.0 °F 34.0 °F 24.1 °F 55% 30.20 in 10.0 mi South 6.9 mph - N/A   Partly Cloudy
1:53 PM 39.9 °F 35.8 °F 24.1 °F 53% 30.18 in 10.0 mi SW 5.8 mph - N/A   Clear
2:53 PM 39.9 °F 34.5 °F 24.1 °F 53% 30.16 in 10.0 mi SSE 8.1 mph - N/A   Partly Cloudy
3:53 PM 41.0 °F 39.0 °F 24.1 °F 51% 30.17 in 10.0 mi Variable 3.5 mph - N/A   Mostly Cloudy
4:53 PM 39.0 °F 34.8 °F 21.9 °F 50% 30.16 in 10.0 mi ESE 5.8 mph - N/A   Clear
5:53 PM 35.1 °F 31.0 °F 23.0 °F 61% 30.16 in 6.0 mi SE 4.6 mph - N/A   Haze
6:53 PM 32.0 °F 26.4 °F 21.0 °F 64% 30.17 in 7.0 mi SE 5.8 mph - N/A   Clear
7:53 PM 30.9 °F 27.5 °F 21.9 °F 69% 30.18 in 10.0 mi ESE 3.5 mph - N/A   Clear
8:53 PM 30.0 °F 24.1 °F 21.9 °F 72% 30.14 in 10.0 mi East 5.8 mph - N/A   Clear
9:53 PM 30.0 °F 24.1 °F 21.9 °F 72% 30.11 in 10.0 mi East 5.8 mph - N/A   Clear
10:53 PM 28.9 °F 23.9 °F 21.0 °F 72% 30.13 in 10.0 mi East 4.6 mph - N/A   Clear
11:53 PM 28.0 °F 24.2 °F 19.9 °F 72% 30.13 in 10.0 mi East 3.5 mph - N/A   Clear